Index of /20260430/WXO-DD/model_gdps/15km/00/156
Name Last modified Size Description
Parent Directory -
20260430T00Z_MSC_GDPS_AbsoluteVorticity_IsbL-0200_LatLon0.15_PT156H.grib2 2026-04-30 04:36 1.5M
20260430T00Z_MSC_GDPS_AbsoluteVorticity_IsbL-0250_LatLon0.15_PT156H.grib2 2026-04-30 04:36 1.3M
20260430T00Z_MSC_GDPS_AbsoluteVorticity_IsbL-0500_LatLon0.15_PT156H.grib2 2026-04-30 04:36 1.5M
20260430T00Z_MSC_GDPS_AbsoluteVorticity_IsbL-0700_LatLon0.15_PT156H.grib2 2026-04-30 04:36 1.3M
20260430T00Z_MSC_GDPS_AbsoluteVorticity_IsbL-0850_LatLon0.15_PT156H.grib2 2026-04-30 04:36 1.6M
20260430T00Z_MSC_GDPS_AirTemp-Max_AGL-2m_LatLon0.15_PT156H.grib2 2026-04-30 04:36 737K
20260430T00Z_MSC_GDPS_AirTemp-Min_AGL-2m_LatLon0.15_PT156H.grib2 2026-04-30 04:36 782K
20260430T00Z_MSC_GDPS_AirTemp_AGL-120m_LatLon0.15_PT156H.grib2 2026-04-30 04:36 904K
20260430T00Z_MSC_GDPS_AirTemp_AGL-2m_LatLon0.15_PT156H.grib2 2026-04-30 04:36 1.0M
20260430T00Z_MSC_GDPS_AirTemp_AGL-40m_LatLon0.15_PT156H.grib2 2026-04-30 04:36 804K
20260430T00Z_MSC_GDPS_AirTemp_AGL-80m_LatLon0.15_PT156H.grib2 2026-04-30 04:36 910K
20260430T00Z_MSC_GDPS_AirTemp_IsbL-0001_LatLon0.15_PT156H.grib2 2026-04-30 04:36 656K
20260430T00Z_MSC_GDPS_AirTemp_IsbL-0005_LatLon0.15_PT156H.grib2 2026-04-30 04:36 686K
20260430T00Z_MSC_GDPS_AirTemp_IsbL-0010_LatLon0.15_PT156H.grib2 2026-04-30 04:36 695K
20260430T00Z_MSC_GDPS_AirTemp_IsbL-0020_LatLon0.15_PT156H.grib2 2026-04-30 04:36 787K
20260430T00Z_MSC_GDPS_AirTemp_IsbL-0030_LatLon0.15_PT156H.grib2 2026-04-30 04:36 751K
20260430T00Z_MSC_GDPS_AirTemp_IsbL-0050_LatLon0.15_PT156H.grib2 2026-04-30 04:36 802K
20260430T00Z_MSC_GDPS_AirTemp_IsbL-0100_LatLon0.15_PT156H.grib2 2026-04-30 04:36 963K
20260430T00Z_MSC_GDPS_AirTemp_IsbL-0150_LatLon0.15_PT156H.grib2 2026-04-30 04:36 962K
20260430T00Z_MSC_GDPS_AirTemp_IsbL-0175_LatLon0.15_PT156H.grib2 2026-04-30 04:36 959K
20260430T00Z_MSC_GDPS_AirTemp_IsbL-0200_LatLon0.15_PT156H.grib2 2026-04-30 04:36 1.0M
20260430T00Z_MSC_GDPS_AirTemp_IsbL-0225_LatLon0.15_PT156H.grib2 2026-04-30 04:36 1.0M
20260430T00Z_MSC_GDPS_AirTemp_IsbL-0250_LatLon0.15_PT156H.grib2 2026-04-30 04:36 1.0M
20260430T00Z_MSC_GDPS_AirTemp_IsbL-0275_LatLon0.15_PT156H.grib2 2026-04-30 04:36 1.0M
20260430T00Z_MSC_GDPS_AirTemp_IsbL-0300_LatLon0.15_PT156H.grib2 2026-04-30 04:36 944K
20260430T00Z_MSC_GDPS_AirTemp_IsbL-0350_LatLon0.15_PT156H.grib2 2026-04-30 04:36 928K
20260430T00Z_MSC_GDPS_AirTemp_IsbL-0400_LatLon0.15_PT156H.grib2 2026-04-30 04:36 943K
20260430T00Z_MSC_GDPS_AirTemp_IsbL-0450_LatLon0.15_PT156H.grib2 2026-04-30 04:36 966K
20260430T00Z_MSC_GDPS_AirTemp_IsbL-0500_LatLon0.15_PT156H.grib2 2026-04-30 04:36 1.0M
20260430T00Z_MSC_GDPS_AirTemp_IsbL-0550_LatLon0.15_PT156H.grib2 2026-04-30 04:36 1.0M
20260430T00Z_MSC_GDPS_AirTemp_IsbL-0600_LatLon0.15_PT156H.grib2 2026-04-30 04:36 891K
20260430T00Z_MSC_GDPS_AirTemp_IsbL-0650_LatLon0.15_PT156H.grib2 2026-04-30 04:36 924K
20260430T00Z_MSC_GDPS_AirTemp_IsbL-0700_LatLon0.15_PT156H.grib2 2026-04-30 04:36 963K
20260430T00Z_MSC_GDPS_AirTemp_IsbL-0750_LatLon0.15_PT156H.grib2 2026-04-30 04:36 1.0M
20260430T00Z_MSC_GDPS_AirTemp_IsbL-0800_LatLon0.15_PT156H.grib2 2026-04-30 04:36 1.1M
20260430T00Z_MSC_GDPS_AirTemp_IsbL-0850_LatLon0.15_PT156H.grib2 2026-04-30 04:36 1.1M
20260430T00Z_MSC_GDPS_AirTemp_IsbL-0875_LatLon0.15_PT156H.grib2 2026-04-30 04:36 1.2M
20260430T00Z_MSC_GDPS_AirTemp_IsbL-0900_LatLon0.15_PT156H.grib2 2026-04-30 04:36 1.2M
20260430T00Z_MSC_GDPS_AirTemp_IsbL-0925_LatLon0.15_PT156H.grib2 2026-04-30 04:36 1.1M
20260430T00Z_MSC_GDPS_AirTemp_IsbL-0950_LatLon0.15_PT156H.grib2 2026-04-30 04:36 1.1M
20260430T00Z_MSC_GDPS_AirTemp_IsbL-0970_LatLon0.15_PT156H.grib2 2026-04-30 04:36 1.1M
20260430T00Z_MSC_GDPS_AirTemp_IsbL-0985_LatLon0.15_PT156H.grib2 2026-04-30 04:36 1.1M
20260430T00Z_MSC_GDPS_AirTemp_IsbL-1000_LatLon0.15_PT156H.grib2 2026-04-30 04:36 1.1M
20260430T00Z_MSC_GDPS_AirTemp_IsbL-1015_LatLon0.15_PT156H.grib2 2026-04-30 04:36 1.1M
20260430T00Z_MSC_GDPS_Albedo_Sfc_LatLon0.15_PT156H.grib2 2026-04-30 04:36 240K
20260430T00Z_MSC_GDPS_CAPE_Sfc_LatLon0.15_PT156H.grib2 2026-04-30 04:36 4.1M
20260430T00Z_MSC_GDPS_CIN_Sfc_LatLon0.15_PT156H.grib2 2026-04-30 04:36 2.9M
20260430T00Z_MSC_GDPS_CloudWater_EAtm_LatLon0.15_PT156H.grib2 2026-04-30 04:36 537K
20260430T00Z_MSC_GDPS_ConvectivePrecip-Accum_Sfc_LatLon0.15_PT156H.grib2 2026-04-30 04:36 3.7M
20260430T00Z_MSC_GDPS_DewPointDepression_AGL-2m_LatLon0.15_PT156H.grib2 2026-04-30 04:36 758K
20260430T00Z_MSC_GDPS_DewPointDepression_IsbL-0010_LatLon0.15_PT156H.grib2 2026-04-30 04:36 75K
20260430T00Z_MSC_GDPS_DewPointDepression_IsbL-0020_LatLon0.15_PT156H.grib2 2026-04-30 04:36 68K
20260430T00Z_MSC_GDPS_DewPointDepression_IsbL-0030_LatLon0.15_PT156H.grib2 2026-04-30 04:36 89K
20260430T00Z_MSC_GDPS_DewPointDepression_IsbL-0050_LatLon0.15_PT156H.grib2 2026-04-30 04:36 375K
20260430T00Z_MSC_GDPS_DewPointDepression_IsbL-0100_LatLon0.15_PT156H.grib2 2026-04-30 04:36 395K
20260430T00Z_MSC_GDPS_DewPointDepression_IsbL-0150_LatLon0.15_PT156H.grib2 2026-04-30 04:36 482K
20260430T00Z_MSC_GDPS_DewPointDepression_IsbL-0175_LatLon0.15_PT156H.grib2 2026-04-30 04:36 591K
20260430T00Z_MSC_GDPS_DewPointDepression_IsbL-0200_LatLon0.15_PT156H.grib2 2026-04-30 04:36 690K
20260430T00Z_MSC_GDPS_DewPointDepression_IsbL-0225_LatLon0.15_PT156H.grib2 2026-04-30 04:36 763K
20260430T00Z_MSC_GDPS_DewPointDepression_IsbL-0250_LatLon0.15_PT156H.grib2 2026-04-30 04:36 860K
20260430T00Z_MSC_GDPS_DewPointDepression_IsbL-0275_LatLon0.15_PT156H.grib2 2026-04-30 04:36 881K
20260430T00Z_MSC_GDPS_DewPointDepression_IsbL-0300_LatLon0.15_PT156H.grib2 2026-04-30 04:36 927K
20260430T00Z_MSC_GDPS_DewPointDepression_IsbL-0350_LatLon0.15_PT156H.grib2 2026-04-30 04:36 961K
20260430T00Z_MSC_GDPS_DewPointDepression_IsbL-0400_LatLon0.15_PT156H.grib2 2026-04-30 04:36 1.0M
20260430T00Z_MSC_GDPS_DewPointDepression_IsbL-0450_LatLon0.15_PT156H.grib2 2026-04-30 04:36 1.0M
20260430T00Z_MSC_GDPS_DewPointDepression_IsbL-0500_LatLon0.15_PT156H.grib2 2026-04-30 04:36 1.0M
20260430T00Z_MSC_GDPS_DewPointDepression_IsbL-0550_LatLon0.15_PT156H.grib2 2026-04-30 04:36 1.0M
20260430T00Z_MSC_GDPS_DewPointDepression_IsbL-0600_LatLon0.15_PT156H.grib2 2026-04-30 04:36 1.0M
20260430T00Z_MSC_GDPS_DewPointDepression_IsbL-0650_LatLon0.15_PT156H.grib2 2026-04-30 04:36 1.1M
20260430T00Z_MSC_GDPS_DewPointDepression_IsbL-0700_LatLon0.15_PT156H.grib2 2026-04-30 04:36 1.1M
20260430T00Z_MSC_GDPS_DewPointDepression_IsbL-0750_LatLon0.15_PT156H.grib2 2026-04-30 04:36 1.1M
20260430T00Z_MSC_GDPS_DewPointDepression_IsbL-0800_LatLon0.15_PT156H.grib2 2026-04-30 04:36 1.2M
20260430T00Z_MSC_GDPS_DewPointDepression_IsbL-0850_LatLon0.15_PT156H.grib2 2026-04-30 04:36 1.2M
20260430T00Z_MSC_GDPS_DewPointDepression_IsbL-0875_LatLon0.15_PT156H.grib2 2026-04-30 04:36 1.1M
20260430T00Z_MSC_GDPS_DewPointDepression_IsbL-0900_LatLon0.15_PT156H.grib2 2026-04-30 04:36 1.1M
20260430T00Z_MSC_GDPS_DewPointDepression_IsbL-0925_LatLon0.15_PT156H.grib2 2026-04-30 04:36 1.0M
20260430T00Z_MSC_GDPS_DewPointDepression_IsbL-0950_LatLon0.15_PT156H.grib2 2026-04-30 04:36 1.0M
20260430T00Z_MSC_GDPS_DewPointDepression_IsbL-0970_LatLon0.15_PT156H.grib2 2026-04-30 04:36 1.0M
20260430T00Z_MSC_GDPS_DewPointDepression_IsbL-0985_LatLon0.15_PT156H.grib2 2026-04-30 04:36 1.0M
20260430T00Z_MSC_GDPS_DewPointDepression_IsbL-1000_LatLon0.15_PT156H.grib2 2026-04-30 04:36 963K
20260430T00Z_MSC_GDPS_DewPointDepression_IsbL-1015_LatLon0.15_PT156H.grib2 2026-04-30 04:36 908K
20260430T00Z_MSC_GDPS_DewPoint_AGL-2m_LatLon0.15_PT156H.grib2 2026-04-30 04:36 608K
20260430T00Z_MSC_GDPS_DownwardLongwaveRadiationFlux-Accum_Sfc_LatLon0.15_PT156H.grib2 2026-04-30 04:36 624K
20260430T00Z_MSC_GDPS_DownwardShortwaveRadiationFlux-Accum_NTAtm_LatLon0.15_PT156H.grib2 2026-04-30 04:36 225K
20260430T00Z_MSC_GDPS_DownwardShortwaveRadiationFlux-Accum_Sfc_LatLon0.15_PT156H.grib2 2026-04-30 04:36 807K
20260430T00Z_MSC_GDPS_FreezingRain-Accum12h_Sfc_LatLon0.15_PT156H.grib2 2026-04-30 04:36 82K
20260430T00Z_MSC_GDPS_FreezingRain-Accum24h_Sfc_LatLon0.15_PT156H.grib2 2026-04-30 04:36 139K
20260430T00Z_MSC_GDPS_FreezingRain-Accum3h_Sfc_LatLon0.15_PT156H.grib2 2026-04-30 04:36 33K
20260430T00Z_MSC_GDPS_FreezingRain-Accum6h_Sfc_LatLon0.15_PT156H.grib2 2026-04-30 04:36 57K
20260430T00Z_MSC_GDPS_FreezingRain-Accum_Sfc_LatLon0.15_PT156H.grib2 2026-04-30 04:36 388K
20260430T00Z_MSC_GDPS_GeopotentialHeight_IsbL-0001_LatLon0.15_PT156H.grib2 2026-04-30 04:36 427K
20260430T00Z_MSC_GDPS_GeopotentialHeight_IsbL-0005_LatLon0.15_PT156H.grib2 2026-04-30 04:36 488K
20260430T00Z_MSC_GDPS_GeopotentialHeight_IsbL-0010_LatLon0.15_PT156H.grib2 2026-04-30 04:36 474K
20260430T00Z_MSC_GDPS_GeopotentialHeight_IsbL-0020_LatLon0.15_PT156H.grib2 2026-04-30 04:36 414K
20260430T00Z_MSC_GDPS_GeopotentialHeight_IsbL-0030_LatLon0.15_PT156H.grib2 2026-04-30 04:36 569K
20260430T00Z_MSC_GDPS_GeopotentialHeight_IsbL-0050_LatLon0.15_PT156H.grib2 2026-04-30 04:36 568K
20260430T00Z_MSC_GDPS_GeopotentialHeight_IsbL-0100_LatLon0.15_PT156H.grib2 2026-04-30 04:36 611K
20260430T00Z_MSC_GDPS_GeopotentialHeight_IsbL-0150_LatLon0.15_PT156H.grib2 2026-04-30 04:36 631K
20260430T00Z_MSC_GDPS_GeopotentialHeight_IsbL-0175_LatLon0.15_PT156H.grib2 2026-04-30 04:36 635K
20260430T00Z_MSC_GDPS_GeopotentialHeight_IsbL-0200_LatLon0.15_PT156H.grib2 2026-04-30 04:36 640K
20260430T00Z_MSC_GDPS_GeopotentialHeight_IsbL-0225_LatLon0.15_PT156H.grib2 2026-04-30 04:36 644K
20260430T00Z_MSC_GDPS_GeopotentialHeight_IsbL-0250_LatLon0.15_PT156H.grib2 2026-04-30 04:36 645K
20260430T00Z_MSC_GDPS_GeopotentialHeight_IsbL-0275_LatLon0.15_PT156H.grib2 2026-04-30 04:36 642K
20260430T00Z_MSC_GDPS_GeopotentialHeight_IsbL-0300_LatLon0.15_PT156H.grib2 2026-04-30 04:36 642K
20260430T00Z_MSC_GDPS_GeopotentialHeight_IsbL-0350_LatLon0.15_PT156H.grib2 2026-04-30 04:36 630K
20260430T00Z_MSC_GDPS_GeopotentialHeight_IsbL-0400_LatLon0.15_PT156H.grib2 2026-04-30 04:36 623K
20260430T00Z_MSC_GDPS_GeopotentialHeight_IsbL-0450_LatLon0.15_PT156H.grib2 2026-04-30 04:36 544K
20260430T00Z_MSC_GDPS_GeopotentialHeight_IsbL-0500_LatLon0.15_PT156H.grib2 2026-04-30 04:36 536K
20260430T00Z_MSC_GDPS_GeopotentialHeight_IsbL-0550_LatLon0.15_PT156H.grib2 2026-04-30 04:36 529K
20260430T00Z_MSC_GDPS_GeopotentialHeight_IsbL-0600_LatLon0.15_PT156H.grib2 2026-04-30 04:36 694K
20260430T00Z_MSC_GDPS_GeopotentialHeight_IsbL-0650_LatLon0.15_PT156H.grib2 2026-04-30 04:36 693K
20260430T00Z_MSC_GDPS_GeopotentialHeight_IsbL-0700_LatLon0.15_PT156H.grib2 2026-04-30 04:36 697K
20260430T00Z_MSC_GDPS_GeopotentialHeight_IsbL-0750_LatLon0.15_PT156H.grib2 2026-04-30 04:36 696K
20260430T00Z_MSC_GDPS_GeopotentialHeight_IsbL-0800_LatLon0.15_PT156H.grib2 2026-04-30 04:36 710K
20260430T00Z_MSC_GDPS_GeopotentialHeight_IsbL-0850_LatLon0.15_PT156H.grib2 2026-04-30 04:36 722K
20260430T00Z_MSC_GDPS_GeopotentialHeight_IsbL-0875_LatLon0.15_PT156H.grib2 2026-04-30 04:36 723K
20260430T00Z_MSC_GDPS_GeopotentialHeight_IsbL-0900_LatLon0.15_PT156H.grib2 2026-04-30 04:36 731K
20260430T00Z_MSC_GDPS_GeopotentialHeight_IsbL-0925_LatLon0.15_PT156H.grib2 2026-04-30 04:36 739K
20260430T00Z_MSC_GDPS_GeopotentialHeight_IsbL-0950_LatLon0.15_PT156H.grib2 2026-04-30 04:36 747K
20260430T00Z_MSC_GDPS_GeopotentialHeight_IsbL-0970_LatLon0.15_PT156H.grib2 2026-04-30 04:36 757K
20260430T00Z_MSC_GDPS_GeopotentialHeight_IsbL-0985_LatLon0.15_PT156H.grib2 2026-04-30 04:36 772K
20260430T00Z_MSC_GDPS_GeopotentialHeight_IsbL-1000_LatLon0.15_PT156H.grib2 2026-04-30 04:36 791K
20260430T00Z_MSC_GDPS_GeopotentialHeight_IsbL-1015_LatLon0.15_PT156H.grib2 2026-04-30 04:36 808K
20260430T00Z_MSC_GDPS_Humidex_Sfc_LatLon0.15_PT156H.grib2 2026-04-30 04:36 5.3M
20260430T00Z_MSC_GDPS_IcePellets-Accum12h_Sfc_LatLon0.15_PT156H.grib2 2026-04-30 04:36 27K
20260430T00Z_MSC_GDPS_IcePellets-Accum24h_Sfc_LatLon0.15_PT156H.grib2 2026-04-30 04:36 50K
20260430T00Z_MSC_GDPS_IcePellets-Accum3h_Sfc_LatLon0.15_PT156H.grib2 2026-04-30 04:36 12K
20260430T00Z_MSC_GDPS_IcePellets-Accum6h_Sfc_LatLon0.15_PT156H.grib2 2026-04-30 04:36 18K
20260430T00Z_MSC_GDPS_IcePellets-Accum_Sfc_LatLon0.15_PT156H.grib2 2026-04-30 04:36 113K
20260430T00Z_MSC_GDPS_KIndex_Sfc_LatLon0.15_PT156H.grib2 2026-04-30 04:36 6.4M
20260430T00Z_MSC_GDPS_LatentHeatNetFlux_Sfc_LatLon0.15_PT156H.grib2 2026-04-30 04:36 739K
20260430T00Z_MSC_GDPS_LiftedIndex-MU-VT_IsbL-0500_LatLon0.15_PT156H.grib2 2026-04-30 04:36 5.4M
20260430T00Z_MSC_GDPS_NetLongwaveRadiationFlux-Accum_Sfc_LatLon0.15_PT156H.grib2 2026-04-30 04:36 1.1M
20260430T00Z_MSC_GDPS_NetShortwaveRadiationFlux-Accum_Sfc_LatLon0.15_PT156H.grib2 2026-04-30 04:36 1.0M
20260430T00Z_MSC_GDPS_O3MixingRatio_Sfc_LatLon0.15_PT156H.grib2 2026-04-30 04:51 1.9M
20260430T00Z_MSC_GDPS_O3_EAtm_LatLon0.15_PT156H.grib2 2026-04-30 04:51 2.4M
20260430T00Z_MSC_GDPS_PlanetaryBoundaryLayerHeight_Sfc_LatLon0.15_PT156H.grib2 2026-04-30 04:36 2.5M
20260430T00Z_MSC_GDPS_Precip-Accum12h_Sfc_LatLon0.15_PT156H.grib2 2026-04-30 04:36 4.3M
20260430T00Z_MSC_GDPS_Precip-Accum24h_Sfc_LatLon0.15_PT156H.grib2 2026-04-30 04:36 4.5M
20260430T00Z_MSC_GDPS_Precip-Accum3h_Sfc_LatLon0.15_PT156H.grib2 2026-04-30 04:36 3.5M
20260430T00Z_MSC_GDPS_Precip-Accum6h_Sfc_LatLon0.15_PT156H.grib2 2026-04-30 04:36 3.8M
20260430T00Z_MSC_GDPS_Precip-Accum_Sfc_LatLon0.15_PT156H.grib2 2026-04-30 04:36 5.3M
20260430T00Z_MSC_GDPS_PrecipRate_Sfc_LatLon0.15_PT156H.grib2 2026-04-30 04:36 3.1M
20260430T00Z_MSC_GDPS_PrecipType-Instant_Sfc_LatLon0.15_PT156H.grib2 2026-04-30 04:36 1.6M
20260430T00Z_MSC_GDPS_Pressure_MSL_LatLon0.15_PT156H.grib2 2026-04-30 04:36 825K
20260430T00Z_MSC_GDPS_Pressure_PVU-1.5_LatLon0.15_PT156H.grib2 2026-04-30 04:36 5.8M
20260430T00Z_MSC_GDPS_Pressure_PVU-1_LatLon0.15_PT156H.grib2 2026-04-30 04:36 6.0M
20260430T00Z_MSC_GDPS_Pressure_PVU-2_LatLon0.15_PT156H.grib2 2026-04-30 04:36 5.6M
20260430T00Z_MSC_GDPS_Pressure_Sfc_LatLon0.15_PT156H.grib2 2026-04-30 04:36 1.1M
20260430T00Z_MSC_GDPS_RadiativeTemp_Sfc_LatLon0.15_PT156H.grib2 2026-04-30 04:36 501K
20260430T00Z_MSC_GDPS_Rain-Accum12h_Sfc_LatLon0.15_PT156H.grib2 2026-04-30 04:36 2.9M
20260430T00Z_MSC_GDPS_Rain-Accum24h_Sfc_LatLon0.15_PT156H.grib2 2026-04-30 04:36 3.2M
20260430T00Z_MSC_GDPS_Rain-Accum3h_Sfc_LatLon0.15_PT156H.grib2 2026-04-30 04:36 1.9M
20260430T00Z_MSC_GDPS_Rain-Accum6h_Sfc_LatLon0.15_PT156H.grib2 2026-04-30 04:36 2.5M
20260430T00Z_MSC_GDPS_Rain-Accum_Sfc_LatLon0.15_PT156H.grib2 2026-04-30 04:36 4.1M
20260430T00Z_MSC_GDPS_RelativeHumidity_AGL-2m_LatLon0.15_PT156H.grib2 2026-04-30 04:36 1.1M
20260430T00Z_MSC_GDPS_RelativeHumidity_IsbL-0010_LatLon0.15_PT156H.grib2 2026-04-30 04:36 195K
20260430T00Z_MSC_GDPS_RelativeHumidity_IsbL-0020_LatLon0.15_PT156H.grib2 2026-04-30 04:36 157K
20260430T00Z_MSC_GDPS_RelativeHumidity_IsbL-0030_LatLon0.15_PT156H.grib2 2026-04-30 04:36 261K
20260430T00Z_MSC_GDPS_RelativeHumidity_IsbL-0050_LatLon0.15_PT156H.grib2 2026-04-30 04:36 333K
20260430T00Z_MSC_GDPS_RelativeHumidity_IsbL-0100_LatLon0.15_PT156H.grib2 2026-04-30 04:36 498K
20260430T00Z_MSC_GDPS_RelativeHumidity_IsbL-0150_LatLon0.15_PT156H.grib2 2026-04-30 04:36 659K
20260430T00Z_MSC_GDPS_RelativeHumidity_IsbL-0175_LatLon0.15_PT156H.grib2 2026-04-30 04:36 795K
20260430T00Z_MSC_GDPS_RelativeHumidity_IsbL-0200_LatLon0.15_PT156H.grib2 2026-04-30 04:36 715K
20260430T00Z_MSC_GDPS_RelativeHumidity_IsbL-0225_LatLon0.15_PT156H.grib2 2026-04-30 04:36 792K
20260430T00Z_MSC_GDPS_RelativeHumidity_IsbL-0250_LatLon0.15_PT156H.grib2 2026-04-30 04:36 864K
20260430T00Z_MSC_GDPS_RelativeHumidity_IsbL-0275_LatLon0.15_PT156H.grib2 2026-04-30 04:36 887K
20260430T00Z_MSC_GDPS_RelativeHumidity_IsbL-0300_LatLon0.15_PT156H.grib2 2026-04-30 04:36 928K
20260430T00Z_MSC_GDPS_RelativeHumidity_IsbL-0350_LatLon0.15_PT156H.grib2 2026-04-30 04:36 950K
20260430T00Z_MSC_GDPS_RelativeHumidity_IsbL-0400_LatLon0.15_PT156H.grib2 2026-04-30 04:36 973K
20260430T00Z_MSC_GDPS_RelativeHumidity_IsbL-0450_LatLon0.15_PT156H.grib2 2026-04-30 04:36 1.0M
20260430T00Z_MSC_GDPS_RelativeHumidity_IsbL-0500_LatLon0.15_PT156H.grib2 2026-04-30 04:36 1.0M
20260430T00Z_MSC_GDPS_RelativeHumidity_IsbL-0550_LatLon0.15_PT156H.grib2 2026-04-30 04:36 1.0M
20260430T00Z_MSC_GDPS_RelativeHumidity_IsbL-0600_LatLon0.15_PT156H.grib2 2026-04-30 04:36 1.0M
20260430T00Z_MSC_GDPS_RelativeHumidity_IsbL-0650_LatLon0.15_PT156H.grib2 2026-04-30 04:36 1.1M
20260430T00Z_MSC_GDPS_RelativeHumidity_IsbL-0700_LatLon0.15_PT156H.grib2 2026-04-30 04:36 1.1M
20260430T00Z_MSC_GDPS_RelativeHumidity_IsbL-0750_LatLon0.15_PT156H.grib2 2026-04-30 04:36 1.1M
20260430T00Z_MSC_GDPS_RelativeHumidity_IsbL-0800_LatLon0.15_PT156H.grib2 2026-04-30 04:36 1.2M
20260430T00Z_MSC_GDPS_RelativeHumidity_IsbL-0850_LatLon0.15_PT156H.grib2 2026-04-30 04:36 1.3M
20260430T00Z_MSC_GDPS_RelativeHumidity_IsbL-0875_LatLon0.15_PT156H.grib2 2026-04-30 04:36 1.3M
20260430T00Z_MSC_GDPS_RelativeHumidity_IsbL-0900_LatLon0.15_PT156H.grib2 2026-04-30 04:36 1.2M
20260430T00Z_MSC_GDPS_RelativeHumidity_IsbL-0925_LatLon0.15_PT156H.grib2 2026-04-30 04:36 1.2M
20260430T00Z_MSC_GDPS_RelativeHumidity_IsbL-0950_LatLon0.15_PT156H.grib2 2026-04-30 04:36 1.2M
20260430T00Z_MSC_GDPS_RelativeHumidity_IsbL-0970_LatLon0.15_PT156H.grib2 2026-04-30 04:36 1.2M
20260430T00Z_MSC_GDPS_RelativeHumidity_IsbL-0985_LatLon0.15_PT156H.grib2 2026-04-30 04:36 1.1M
20260430T00Z_MSC_GDPS_RelativeHumidity_IsbL-1000_LatLon0.15_PT156H.grib2 2026-04-30 04:36 1.1M
20260430T00Z_MSC_GDPS_RelativeHumidity_IsbL-1015_LatLon0.15_PT156H.grib2 2026-04-30 04:36 1.0M
20260430T00Z_MSC_GDPS_RelativeVorticity_IsbL-0200_LatLon0.15_PT156H.grib2 2026-04-30 04:36 1.5M
20260430T00Z_MSC_GDPS_RelativeVorticity_IsbL-0250_LatLon0.15_PT156H.grib2 2026-04-30 04:36 1.3M
20260430T00Z_MSC_GDPS_RelativeVorticity_IsbL-0500_LatLon0.15_PT156H.grib2 2026-04-30 04:36 1.5M
20260430T00Z_MSC_GDPS_RelativeVorticity_IsbL-0700_LatLon0.15_PT156H.grib2 2026-04-30 04:36 1.3M
20260430T00Z_MSC_GDPS_RelativeVorticity_IsbL-0850_LatLon0.15_PT156H.grib2 2026-04-30 04:36 1.6M
20260430T00Z_MSC_GDPS_Runoff-Accum_Sfc_LatLon0.15_PT156H.grib2 2026-04-30 04:36 115K
20260430T00Z_MSC_GDPS_SensibleHeatNetFlux_Sfc_LatLon0.15_PT156H.grib2 2026-04-30 04:36 666K
20260430T00Z_MSC_GDPS_ShowalterIndex_IsbL-0500_LatLon0.15_PT156H.grib2 2026-04-30 04:36 6.2M
20260430T00Z_MSC_GDPS_Snow-Accum12h_Sfc_LatLon0.15_PT156H.grib2 2026-04-30 04:36 1.4M
20260430T00Z_MSC_GDPS_Snow-Accum24h_Sfc_LatLon0.15_PT156H.grib2 2026-04-30 04:36 1.7M
20260430T00Z_MSC_GDPS_Snow-Accum3h_Sfc_LatLon0.15_PT156H.grib2 2026-04-30 04:36 926K
20260430T00Z_MSC_GDPS_Snow-Accum6h_Sfc_LatLon0.15_PT156H.grib2 2026-04-30 04:36 1.2M
20260430T00Z_MSC_GDPS_Snow-Accum_Sfc_LatLon0.15_PT156H.grib2 2026-04-30 04:36 2.0M
20260430T00Z_MSC_GDPS_SnowDensity_Sfc_LatLon0.15_PT156H.grib2 2026-04-30 04:36 262K
20260430T00Z_MSC_GDPS_SnowDepth_Sfc_LatLon0.15_PT156H.grib2 2026-04-30 04:36 1.7M
20260430T00Z_MSC_GDPS_SoilTemp_DBS-0to10cm_LatLon0.15_PT156H.grib2 2026-04-30 04:36 515K
20260430T00Z_MSC_GDPS_SoilTemp_Sfc_LatLon0.15_PT156H.grib2 2026-04-30 04:36 590K
20260430T00Z_MSC_GDPS_SoilVolumetricIceContent_Sfc_LatLon0.15_PT156H.grib2 2026-04-30 04:36 190K
20260430T00Z_MSC_GDPS_SoilVolumetricWaterContent_DBS-0to10cm_LatLon0.15_PT156H.grib2 2026-04-30 04:36 592K
20260430T00Z_MSC_GDPS_SoilVolumetricWaterContent_DBS-0to1cm_LatLon0.15_PT156H.grib2 2026-04-30 04:36 649K
20260430T00Z_MSC_GDPS_SpecificHumidity_AGL-120m_LatLon0.15_PT156H.grib2 2026-04-30 04:36 1.1M
20260430T00Z_MSC_GDPS_SpecificHumidity_AGL-2m_LatLon0.15_PT156H.grib2 2026-04-30 04:36 1.2M
20260430T00Z_MSC_GDPS_SpecificHumidity_AGL-40m_LatLon0.15_PT156H.grib2 2026-04-30 04:36 1.1M
20260430T00Z_MSC_GDPS_SpecificHumidity_AGL-80m_LatLon0.15_PT156H.grib2 2026-04-30 04:36 1.1M
20260430T00Z_MSC_GDPS_SpecificHumidity_IsbL-0001_LatLon0.15_PT156H.grib2 2026-04-30 04:36 1.2M
20260430T00Z_MSC_GDPS_SpecificHumidity_IsbL-0005_LatLon0.15_PT156H.grib2 2026-04-30 04:36 1.1M
20260430T00Z_MSC_GDPS_SpecificHumidity_IsbL-0010_LatLon0.15_PT156H.grib2 2026-04-30 04:36 1.2M
20260430T00Z_MSC_GDPS_SpecificHumidity_IsbL-0020_LatLon0.15_PT156H.grib2 2026-04-30 04:36 1.2M
20260430T00Z_MSC_GDPS_SpecificHumidity_IsbL-0030_LatLon0.15_PT156H.grib2 2026-04-30 04:36 1.5M
20260430T00Z_MSC_GDPS_SpecificHumidity_IsbL-0050_LatLon0.15_PT156H.grib2 2026-04-30 04:36 1.5M
20260430T00Z_MSC_GDPS_SpecificHumidity_IsbL-0100_LatLon0.15_PT156H.grib2 2026-04-30 04:36 1.3M
20260430T00Z_MSC_GDPS_SpecificHumidity_IsbL-0150_LatLon0.15_PT156H.grib2 2026-04-30 04:36 1.3M
20260430T00Z_MSC_GDPS_SpecificHumidity_IsbL-0175_LatLon0.15_PT156H.grib2 2026-04-30 04:36 1.2M
20260430T00Z_MSC_GDPS_SpecificHumidity_IsbL-0200_LatLon0.15_PT156H.grib2 2026-04-30 04:36 1.3M
20260430T00Z_MSC_GDPS_SpecificHumidity_IsbL-0225_LatLon0.15_PT156H.grib2 2026-04-30 04:36 1.3M
20260430T00Z_MSC_GDPS_SpecificHumidity_IsbL-0250_LatLon0.15_PT156H.grib2 2026-04-30 04:36 1.4M
20260430T00Z_MSC_GDPS_SpecificHumidity_IsbL-0275_LatLon0.15_PT156H.grib2 2026-04-30 04:36 1.3M
20260430T00Z_MSC_GDPS_SpecificHumidity_IsbL-0300_LatLon0.15_PT156H.grib2 2026-04-30 04:36 1.2M
20260430T00Z_MSC_GDPS_SpecificHumidity_IsbL-0350_LatLon0.15_PT156H.grib2 2026-04-30 04:36 1.2M
20260430T00Z_MSC_GDPS_SpecificHumidity_IsbL-0400_LatLon0.15_PT156H.grib2 2026-04-30 04:36 1.5M
20260430T00Z_MSC_GDPS_SpecificHumidity_IsbL-0450_LatLon0.15_PT156H.grib2 2026-04-30 04:36 1.6M
20260430T00Z_MSC_GDPS_SpecificHumidity_IsbL-0500_LatLon0.15_PT156H.grib2 2026-04-30 04:36 1.4M
20260430T00Z_MSC_GDPS_SpecificHumidity_IsbL-0550_LatLon0.15_PT156H.grib2 2026-04-30 04:36 1.6M
20260430T00Z_MSC_GDPS_SpecificHumidity_IsbL-0600_LatLon0.15_PT156H.grib2 2026-04-30 04:36 1.7M
20260430T00Z_MSC_GDPS_SpecificHumidity_IsbL-0650_LatLon0.15_PT156H.grib2 2026-04-30 04:36 1.5M
20260430T00Z_MSC_GDPS_SpecificHumidity_IsbL-0700_LatLon0.15_PT156H.grib2 2026-04-30 04:36 1.6M
20260430T00Z_MSC_GDPS_SpecificHumidity_IsbL-0750_LatLon0.15_PT156H.grib2 2026-04-30 04:36 1.7M
20260430T00Z_MSC_GDPS_SpecificHumidity_IsbL-0800_LatLon0.15_PT156H.grib2 2026-04-30 04:36 1.8M
20260430T00Z_MSC_GDPS_SpecificHumidity_IsbL-0850_LatLon0.15_PT156H.grib2 2026-04-30 04:36 1.9M
20260430T00Z_MSC_GDPS_SpecificHumidity_IsbL-0875_LatLon0.15_PT156H.grib2 2026-04-30 04:36 1.9M
20260430T00Z_MSC_GDPS_SpecificHumidity_IsbL-0900_LatLon0.15_PT156H.grib2 2026-04-30 04:36 1.9M
20260430T00Z_MSC_GDPS_SpecificHumidity_IsbL-0925_LatLon0.15_PT156H.grib2 2026-04-30 04:36 1.6M
20260430T00Z_MSC_GDPS_SpecificHumidity_IsbL-0950_LatLon0.15_PT156H.grib2 2026-04-30 04:36 1.6M
20260430T00Z_MSC_GDPS_SpecificHumidity_IsbL-0970_LatLon0.15_PT156H.grib2 2026-04-30 04:36 1.5M
20260430T00Z_MSC_GDPS_SpecificHumidity_IsbL-0985_LatLon0.15_PT156H.grib2 2026-04-30 04:36 1.5M
20260430T00Z_MSC_GDPS_SpecificHumidity_IsbL-1000_LatLon0.15_PT156H.grib2 2026-04-30 04:36 1.5M
20260430T00Z_MSC_GDPS_SpecificHumidity_IsbL-1015_LatLon0.15_PT156H.grib2 2026-04-30 04:36 1.5M
20260430T00Z_MSC_GDPS_SpecificHumidity_Sfc_LatLon0.15_PT156H.grib2 2026-04-30 04:36 684K
20260430T00Z_MSC_GDPS_Thickness_IsbL-0850to0700_LatLon0.15_PT156H.grib2 2026-04-30 04:36 473K
20260430T00Z_MSC_GDPS_Thickness_IsbL-1000to0500_LatLon0.15_PT156H.grib2 2026-04-30 04:36 375K
20260430T00Z_MSC_GDPS_Thickness_IsbL-1000to0850_LatLon0.15_PT156H.grib2 2026-04-30 04:36 492K
20260430T00Z_MSC_GDPS_TotalCloudCover_Sfc_LatLon0.15_PT156H.grib2 2026-04-30 04:36 820K
20260430T00Z_MSC_GDPS_TotalTotalsIndex_Sfc_LatLon0.15_PT156H.grib2 2026-04-30 04:36 6.1M
20260430T00Z_MSC_GDPS_UVIndex-ClearSky_Sfc_LatLon0.15_PT156H.grib2 2026-04-30 04:51 1.0M
20260430T00Z_MSC_GDPS_UVIndex_Sfc_LatLon0.15_PT156H.grib2 2026-04-30 04:51 1.5M
20260430T00Z_MSC_GDPS_UpwardLongwaveRadiationFlux_NTAtm_LatLon0.15_PT156H.grib2 2026-04-30 04:36 835K
20260430T00Z_MSC_GDPS_VerticalVelocity_IsbL-0200_LatLon0.15_PT156H.grib2 2026-04-30 04:36 1.2M
20260430T00Z_MSC_GDPS_VerticalVelocity_IsbL-0250_LatLon0.15_PT156H.grib2 2026-04-30 04:36 1.1M
20260430T00Z_MSC_GDPS_VerticalVelocity_IsbL-0500_LatLon0.15_PT156H.grib2 2026-04-30 04:36 1.3M
20260430T00Z_MSC_GDPS_VerticalVelocity_IsbL-0600_LatLon0.15_PT156H.grib2 2026-04-30 04:36 1.1M
20260430T00Z_MSC_GDPS_VerticalVelocity_IsbL-0700_LatLon0.15_PT156H.grib2 2026-04-30 04:36 1.2M
20260430T00Z_MSC_GDPS_VerticalVelocity_IsbL-0850_LatLon0.15_PT156H.grib2 2026-04-30 04:36 1.3M
20260430T00Z_MSC_GDPS_WindChill_Sfc_LatLon0.15_PT156H.grib2 2026-04-30 04:36 5.3M
20260430T00Z_MSC_GDPS_WindDir_AGL-10m_LatLon0.15_PT156H.grib2 2026-04-30 04:36 1.3M
20260430T00Z_MSC_GDPS_WindDir_AGL-120m_LatLon0.15_PT156H.grib2 2026-04-30 04:36 1.3M
20260430T00Z_MSC_GDPS_WindDir_AGL-40m_LatLon0.15_PT156H.grib2 2026-04-30 04:36 1.4M
20260430T00Z_MSC_GDPS_WindDir_AGL-80m_LatLon0.15_PT156H.grib2 2026-04-30 04:36 1.3M
20260430T00Z_MSC_GDPS_WindDir_IsbL-0001_LatLon0.15_PT156H.grib2 2026-04-30 04:36 661K
20260430T00Z_MSC_GDPS_WindDir_IsbL-0005_LatLon0.15_PT156H.grib2 2026-04-30 04:36 808K
20260430T00Z_MSC_GDPS_WindDir_IsbL-0010_LatLon0.15_PT156H.grib2 2026-04-30 04:36 827K
20260430T00Z_MSC_GDPS_WindDir_IsbL-0020_LatLon0.15_PT156H.grib2 2026-04-30 04:36 941K
20260430T00Z_MSC_GDPS_WindDir_IsbL-0030_LatLon0.15_PT156H.grib2 2026-04-30 04:36 931K
20260430T00Z_MSC_GDPS_WindDir_IsbL-0050_LatLon0.15_PT156H.grib2 2026-04-30 04:36 956K
20260430T00Z_MSC_GDPS_WindDir_IsbL-0100_LatLon0.15_PT156H.grib2 2026-04-30 04:36 1.0M
20260430T00Z_MSC_GDPS_WindDir_IsbL-0150_LatLon0.15_PT156H.grib2 2026-04-30 04:36 1.0M
20260430T00Z_MSC_GDPS_WindDir_IsbL-0175_LatLon0.15_PT156H.grib2 2026-04-30 04:36 1.0M
20260430T00Z_MSC_GDPS_WindDir_IsbL-0200_LatLon0.15_PT156H.grib2 2026-04-30 04:36 1.1M
20260430T00Z_MSC_GDPS_WindDir_IsbL-0225_LatLon0.15_PT156H.grib2 2026-04-30 04:36 1.1M
20260430T00Z_MSC_GDPS_WindDir_IsbL-0250_LatLon0.15_PT156H.grib2 2026-04-30 04:36 1.1M
20260430T00Z_MSC_GDPS_WindDir_IsbL-0275_LatLon0.15_PT156H.grib2 2026-04-30 04:36 1.2M
20260430T00Z_MSC_GDPS_WindDir_IsbL-0300_LatLon0.15_PT156H.grib2 2026-04-30 04:36 1.2M
20260430T00Z_MSC_GDPS_WindDir_IsbL-0350_LatLon0.15_PT156H.grib2 2026-04-30 04:36 1.3M
20260430T00Z_MSC_GDPS_WindDir_IsbL-0400_LatLon0.15_PT156H.grib2 2026-04-30 04:36 1.3M
20260430T00Z_MSC_GDPS_WindDir_IsbL-0450_LatLon0.15_PT156H.grib2 2026-04-30 04:36 1.3M
20260430T00Z_MSC_GDPS_WindDir_IsbL-0500_LatLon0.15_PT156H.grib2 2026-04-30 04:36 1.4M
20260430T00Z_MSC_GDPS_WindDir_IsbL-0550_LatLon0.15_PT156H.grib2 2026-04-30 04:36 1.4M
20260430T00Z_MSC_GDPS_WindDir_IsbL-0600_LatLon0.15_PT156H.grib2 2026-04-30 04:36 1.4M
20260430T00Z_MSC_GDPS_WindDir_IsbL-0650_LatLon0.15_PT156H.grib2 2026-04-30 04:36 1.5M
20260430T00Z_MSC_GDPS_WindDir_IsbL-0700_LatLon0.15_PT156H.grib2 2026-04-30 04:36 1.6M
20260430T00Z_MSC_GDPS_WindDir_IsbL-0750_LatLon0.15_PT156H.grib2 2026-04-30 04:36 1.7M
20260430T00Z_MSC_GDPS_WindDir_IsbL-0800_LatLon0.15_PT156H.grib2 2026-04-30 04:36 1.8M
20260430T00Z_MSC_GDPS_WindDir_IsbL-0850_LatLon0.15_PT156H.grib2 2026-04-30 04:36 1.9M
20260430T00Z_MSC_GDPS_WindDir_IsbL-0875_LatLon0.15_PT156H.grib2 2026-04-30 04:36 1.9M
20260430T00Z_MSC_GDPS_WindDir_IsbL-0900_LatLon0.15_PT156H.grib2 2026-04-30 04:36 1.9M
20260430T00Z_MSC_GDPS_WindDir_IsbL-0925_LatLon0.15_PT156H.grib2 2026-04-30 04:36 1.9M
20260430T00Z_MSC_GDPS_WindDir_IsbL-0950_LatLon0.15_PT156H.grib2 2026-04-30 04:36 1.9M
20260430T00Z_MSC_GDPS_WindDir_IsbL-0970_LatLon0.15_PT156H.grib2 2026-04-30 04:36 2.0M
20260430T00Z_MSC_GDPS_WindDir_IsbL-0985_LatLon0.15_PT156H.grib2 2026-04-30 04:36 2.0M
20260430T00Z_MSC_GDPS_WindDir_IsbL-1000_LatLon0.15_PT156H.grib2 2026-04-30 04:36 2.0M
20260430T00Z_MSC_GDPS_WindDir_IsbL-1015_LatLon0.15_PT156H.grib2 2026-04-30 04:36 2.0M
20260430T00Z_MSC_GDPS_WindGust-Max_AGL-10m_LatLon0.15_PT156H.grib2 2026-04-30 04:36 2.2M
20260430T00Z_MSC_GDPS_WindGust-Min_AGL-10m_LatLon0.15_PT156H.grib2 2026-04-30 04:36 2.2M
20260430T00Z_MSC_GDPS_WindGust_AGL-10m_LatLon0.15_PT156H.grib2 2026-04-30 04:36 2.2M
20260430T00Z_MSC_GDPS_WindSpeed_AGL-10m_LatLon0.15_PT156H.grib2 2026-04-30 04:36 1.1M
20260430T00Z_MSC_GDPS_WindSpeed_AGL-120m_LatLon0.15_PT156H.grib2 2026-04-30 04:36 1.2M
20260430T00Z_MSC_GDPS_WindSpeed_AGL-40m_LatLon0.15_PT156H.grib2 2026-04-30 04:36 1.2M
20260430T00Z_MSC_GDPS_WindSpeed_AGL-80m_LatLon0.15_PT156H.grib2 2026-04-30 04:36 1.2M
20260430T00Z_MSC_GDPS_WindSpeed_IsbL-0001_LatLon0.15_PT156H.grib2 2026-04-30 04:36 496K
20260430T00Z_MSC_GDPS_WindSpeed_IsbL-0005_LatLon0.15_PT156H.grib2 2026-04-30 04:36 692K
20260430T00Z_MSC_GDPS_WindSpeed_IsbL-0010_LatLon0.15_PT156H.grib2 2026-04-30 04:36 622K
20260430T00Z_MSC_GDPS_WindSpeed_IsbL-0020_LatLon0.15_PT156H.grib2 2026-04-30 04:36 661K
20260430T00Z_MSC_GDPS_WindSpeed_IsbL-0030_LatLon0.15_PT156H.grib2 2026-04-30 04:36 856K
20260430T00Z_MSC_GDPS_WindSpeed_IsbL-0050_LatLon0.15_PT156H.grib2 2026-04-30 04:36 893K
20260430T00Z_MSC_GDPS_WindSpeed_IsbL-0100_LatLon0.15_PT156H.grib2 2026-04-30 04:36 1.1M
20260430T00Z_MSC_GDPS_WindSpeed_IsbL-0150_LatLon0.15_PT156H.grib2 2026-04-30 04:36 1.0M
20260430T00Z_MSC_GDPS_WindSpeed_IsbL-0175_LatLon0.15_PT156H.grib2 2026-04-30 04:36 1.0M
20260430T00Z_MSC_GDPS_WindSpeed_IsbL-0200_LatLon0.15_PT156H.grib2 2026-04-30 04:36 1.1M
20260430T00Z_MSC_GDPS_WindSpeed_IsbL-0225_LatLon0.15_PT156H.grib2 2026-04-30 04:36 1.1M
20260430T00Z_MSC_GDPS_WindSpeed_IsbL-0250_LatLon0.15_PT156H.grib2 2026-04-30 04:36 1.1M
20260430T00Z_MSC_GDPS_WindSpeed_IsbL-0275_LatLon0.15_PT156H.grib2 2026-04-30 04:36 1.1M
20260430T00Z_MSC_GDPS_WindSpeed_IsbL-0300_LatLon0.15_PT156H.grib2 2026-04-30 04:36 1.1M
20260430T00Z_MSC_GDPS_WindSpeed_IsbL-0350_LatLon0.15_PT156H.grib2 2026-04-30 04:36 1.1M
20260430T00Z_MSC_GDPS_WindSpeed_IsbL-0400_LatLon0.15_PT156H.grib2 2026-04-30 04:36 1.1M
20260430T00Z_MSC_GDPS_WindSpeed_IsbL-0450_LatLon0.15_PT156H.grib2 2026-04-30 04:36 1.1M
20260430T00Z_MSC_GDPS_WindSpeed_IsbL-0500_LatLon0.15_PT156H.grib2 2026-04-30 04:36 1.1M
20260430T00Z_MSC_GDPS_WindSpeed_IsbL-0550_LatLon0.15_PT156H.grib2 2026-04-30 04:36 1.1M
20260430T00Z_MSC_GDPS_WindSpeed_IsbL-0600_LatLon0.15_PT156H.grib2 2026-04-30 04:36 1.1M
20260430T00Z_MSC_GDPS_WindSpeed_IsbL-0650_LatLon0.15_PT156H.grib2 2026-04-30 04:36 1.2M
20260430T00Z_MSC_GDPS_WindSpeed_IsbL-0700_LatLon0.15_PT156H.grib2 2026-04-30 04:36 1.5M
20260430T00Z_MSC_GDPS_WindSpeed_IsbL-0750_LatLon0.15_PT156H.grib2 2026-04-30 04:36 1.6M
20260430T00Z_MSC_GDPS_WindSpeed_IsbL-0800_LatLon0.15_PT156H.grib2 2026-04-30 04:36 1.7M
20260430T00Z_MSC_GDPS_WindSpeed_IsbL-0850_LatLon0.15_PT156H.grib2 2026-04-30 04:36 1.7M
20260430T00Z_MSC_GDPS_WindSpeed_IsbL-0875_LatLon0.15_PT156H.grib2 2026-04-30 04:36 1.8M
20260430T00Z_MSC_GDPS_WindSpeed_IsbL-0900_LatLon0.15_PT156H.grib2 2026-04-30 04:36 1.8M
20260430T00Z_MSC_GDPS_WindSpeed_IsbL-0925_LatLon0.15_PT156H.grib2 2026-04-30 04:36 1.8M
20260430T00Z_MSC_GDPS_WindSpeed_IsbL-0950_LatLon0.15_PT156H.grib2 2026-04-30 04:36 1.9M
20260430T00Z_MSC_GDPS_WindSpeed_IsbL-0970_LatLon0.15_PT156H.grib2 2026-04-30 04:36 1.9M
20260430T00Z_MSC_GDPS_WindSpeed_IsbL-0985_LatLon0.15_PT156H.grib2 2026-04-30 04:36 1.8M
20260430T00Z_MSC_GDPS_WindSpeed_IsbL-1000_LatLon0.15_PT156H.grib2 2026-04-30 04:36 1.8M
20260430T00Z_MSC_GDPS_WindSpeed_IsbL-1015_LatLon0.15_PT156H.grib2 2026-04-30 04:36 1.8M
20260430T00Z_MSC_GDPS_WindU_AGL-10m_LatLon0.15_PT156H.grib2 2026-04-30 04:36 1.3M
20260430T00Z_MSC_GDPS_WindU_AGL-120m_LatLon0.15_PT156H.grib2 2026-04-30 04:36 967K
20260430T00Z_MSC_GDPS_WindU_AGL-40m_LatLon0.15_PT156H.grib2 2026-04-30 04:36 964K
20260430T00Z_MSC_GDPS_WindU_AGL-80m_LatLon0.15_PT156H.grib2 2026-04-30 04:36 967K
20260430T00Z_MSC_GDPS_WindU_IsbL-0001_LatLon0.15_PT156H.grib2 2026-04-30 04:36 500K
20260430T00Z_MSC_GDPS_WindU_IsbL-0005_LatLon0.15_PT156H.grib2 2026-04-30 04:36 688K
20260430T00Z_MSC_GDPS_WindU_IsbL-0010_LatLon0.15_PT156H.grib2 2026-04-30 04:36 698K
20260430T00Z_MSC_GDPS_WindU_IsbL-0020_LatLon0.15_PT156H.grib2 2026-04-30 04:36 727K
20260430T00Z_MSC_GDPS_WindU_IsbL-0030_LatLon0.15_PT156H.grib2 2026-04-30 04:36 732K
20260430T00Z_MSC_GDPS_WindU_IsbL-0050_LatLon0.15_PT156H.grib2 2026-04-30 04:36 757K
20260430T00Z_MSC_GDPS_WindU_IsbL-0100_LatLon0.15_PT156H.grib2 2026-04-30 04:36 923K
20260430T00Z_MSC_GDPS_WindU_IsbL-0150_LatLon0.15_PT156H.grib2 2026-04-30 04:36 1.0M
20260430T00Z_MSC_GDPS_WindU_IsbL-0175_LatLon0.15_PT156H.grib2 2026-04-30 04:36 1.0M
20260430T00Z_MSC_GDPS_WindU_IsbL-0200_LatLon0.15_PT156H.grib2 2026-04-30 04:36 843K
20260430T00Z_MSC_GDPS_WindU_IsbL-0225_LatLon0.15_PT156H.grib2 2026-04-30 04:36 853K
20260430T00Z_MSC_GDPS_WindU_IsbL-0250_LatLon0.15_PT156H.grib2 2026-04-30 04:36 854K
20260430T00Z_MSC_GDPS_WindU_IsbL-0275_LatLon0.15_PT156H.grib2 2026-04-30 04:36 882K
20260430T00Z_MSC_GDPS_WindU_IsbL-0300_LatLon0.15_PT156H.grib2 2026-04-30 04:36 873K
20260430T00Z_MSC_GDPS_WindU_IsbL-0350_LatLon0.15_PT156H.grib2 2026-04-30 04:36 887K
20260430T00Z_MSC_GDPS_WindU_IsbL-0400_LatLon0.15_PT156H.grib2 2026-04-30 04:36 889K
20260430T00Z_MSC_GDPS_WindU_IsbL-0450_LatLon0.15_PT156H.grib2 2026-04-30 04:36 1.1M
20260430T00Z_MSC_GDPS_WindU_IsbL-0500_LatLon0.15_PT156H.grib2 2026-04-30 04:36 1.1M
20260430T00Z_MSC_GDPS_WindU_IsbL-0550_LatLon0.15_PT156H.grib2 2026-04-30 04:36 1.1M
20260430T00Z_MSC_GDPS_WindU_IsbL-0600_LatLon0.15_PT156H.grib2 2026-04-30 04:36 1.1M
20260430T00Z_MSC_GDPS_WindU_IsbL-0650_LatLon0.15_PT156H.grib2 2026-04-30 04:36 1.2M
20260430T00Z_MSC_GDPS_WindU_IsbL-0700_LatLon0.15_PT156H.grib2 2026-04-30 04:36 1.2M
20260430T00Z_MSC_GDPS_WindU_IsbL-0750_LatLon0.15_PT156H.grib2 2026-04-30 04:36 1.3M
20260430T00Z_MSC_GDPS_WindU_IsbL-0800_LatLon0.15_PT156H.grib2 2026-04-30 04:36 1.4M
20260430T00Z_MSC_GDPS_WindU_IsbL-0850_LatLon0.15_PT156H.grib2 2026-04-30 04:36 1.4M
20260430T00Z_MSC_GDPS_WindU_IsbL-0875_LatLon0.15_PT156H.grib2 2026-04-30 04:36 1.5M
20260430T00Z_MSC_GDPS_WindU_IsbL-0900_LatLon0.15_PT156H.grib2 2026-04-30 04:36 1.5M
20260430T00Z_MSC_GDPS_WindU_IsbL-0925_LatLon0.15_PT156H.grib2 2026-04-30 04:36 1.5M
20260430T00Z_MSC_GDPS_WindU_IsbL-0950_LatLon0.15_PT156H.grib2 2026-04-30 04:36 1.4M
20260430T00Z_MSC_GDPS_WindU_IsbL-0970_LatLon0.15_PT156H.grib2 2026-04-30 04:36 1.4M
20260430T00Z_MSC_GDPS_WindU_IsbL-0985_LatLon0.15_PT156H.grib2 2026-04-30 04:36 1.4M
20260430T00Z_MSC_GDPS_WindU_IsbL-1000_LatLon0.15_PT156H.grib2 2026-04-30 04:36 1.4M
20260430T00Z_MSC_GDPS_WindU_IsbL-1015_LatLon0.15_PT156H.grib2 2026-04-30 04:36 1.3M
20260430T00Z_MSC_GDPS_WindV_AGL-10m_LatLon0.15_PT156H.grib2 2026-04-30 04:36 1.6M
20260430T00Z_MSC_GDPS_WindV_AGL-120m_LatLon0.15_PT156H.grib2 2026-04-30 04:36 967K
20260430T00Z_MSC_GDPS_WindV_AGL-40m_LatLon0.15_PT156H.grib2 2026-04-30 04:36 960K
20260430T00Z_MSC_GDPS_WindV_AGL-80m_LatLon0.15_PT156H.grib2 2026-04-30 04:36 966K
20260430T00Z_MSC_GDPS_WindV_IsbL-0001_LatLon0.15_PT156H.grib2 2026-04-30 04:36 706K
20260430T00Z_MSC_GDPS_WindV_IsbL-0005_LatLon0.15_PT156H.grib2 2026-04-30 04:36 851K
20260430T00Z_MSC_GDPS_WindV_IsbL-0010_LatLon0.15_PT156H.grib2 2026-04-30 04:36 875K
20260430T00Z_MSC_GDPS_WindV_IsbL-0020_LatLon0.15_PT156H.grib2 2026-04-30 04:36 925K
20260430T00Z_MSC_GDPS_WindV_IsbL-0030_LatLon0.15_PT156H.grib2 2026-04-30 04:36 926K
20260430T00Z_MSC_GDPS_WindV_IsbL-0050_LatLon0.15_PT156H.grib2 2026-04-30 04:36 967K
20260430T00Z_MSC_GDPS_WindV_IsbL-0100_LatLon0.15_PT156H.grib2 2026-04-30 04:36 1.1M
20260430T00Z_MSC_GDPS_WindV_IsbL-0150_LatLon0.15_PT156H.grib2 2026-04-30 04:36 1.0M
20260430T00Z_MSC_GDPS_WindV_IsbL-0175_LatLon0.15_PT156H.grib2 2026-04-30 04:36 1.0M
20260430T00Z_MSC_GDPS_WindV_IsbL-0200_LatLon0.15_PT156H.grib2 2026-04-30 04:36 837K
20260430T00Z_MSC_GDPS_WindV_IsbL-0225_LatLon0.15_PT156H.grib2 2026-04-30 04:36 848K
20260430T00Z_MSC_GDPS_WindV_IsbL-0250_LatLon0.15_PT156H.grib2 2026-04-30 04:36 848K
20260430T00Z_MSC_GDPS_WindV_IsbL-0275_LatLon0.15_PT156H.grib2 2026-04-30 04:36 876K
20260430T00Z_MSC_GDPS_WindV_IsbL-0300_LatLon0.15_PT156H.grib2 2026-04-30 04:36 868K
20260430T00Z_MSC_GDPS_WindV_IsbL-0350_LatLon0.15_PT156H.grib2 2026-04-30 04:36 879K
20260430T00Z_MSC_GDPS_WindV_IsbL-0400_LatLon0.15_PT156H.grib2 2026-04-30 04:36 880K
20260430T00Z_MSC_GDPS_WindV_IsbL-0450_LatLon0.15_PT156H.grib2 2026-04-30 04:36 880K
20260430T00Z_MSC_GDPS_WindV_IsbL-0500_LatLon0.15_PT156H.grib2 2026-04-30 04:36 1.1M
20260430T00Z_MSC_GDPS_WindV_IsbL-0550_LatLon0.15_PT156H.grib2 2026-04-30 04:36 1.1M
20260430T00Z_MSC_GDPS_WindV_IsbL-0600_LatLon0.15_PT156H.grib2 2026-04-30 04:36 1.1M
20260430T00Z_MSC_GDPS_WindV_IsbL-0650_LatLon0.15_PT156H.grib2 2026-04-30 04:36 1.2M
20260430T00Z_MSC_GDPS_WindV_IsbL-0700_LatLon0.15_PT156H.grib2 2026-04-30 04:36 1.2M
20260430T00Z_MSC_GDPS_WindV_IsbL-0750_LatLon0.15_PT156H.grib2 2026-04-30 04:36 1.3M
20260430T00Z_MSC_GDPS_WindV_IsbL-0800_LatLon0.15_PT156H.grib2 2026-04-30 04:36 1.3M
20260430T00Z_MSC_GDPS_WindV_IsbL-0850_LatLon0.15_PT156H.grib2 2026-04-30 04:36 1.4M
20260430T00Z_MSC_GDPS_WindV_IsbL-0875_LatLon0.15_PT156H.grib2 2026-04-30 04:36 1.4M
20260430T00Z_MSC_GDPS_WindV_IsbL-0900_LatLon0.15_PT156H.grib2 2026-04-30 04:36 1.4M
20260430T00Z_MSC_GDPS_WindV_IsbL-0925_LatLon0.15_PT156H.grib2 2026-04-30 04:36 1.4M
20260430T00Z_MSC_GDPS_WindV_IsbL-0950_LatLon0.15_PT156H.grib2 2026-04-30 04:36 1.4M
20260430T00Z_MSC_GDPS_WindV_IsbL-0970_LatLon0.15_PT156H.grib2 2026-04-30 04:36 1.4M
20260430T00Z_MSC_GDPS_WindV_IsbL-0985_LatLon0.15_PT156H.grib2 2026-04-30 04:36 1.4M
20260430T00Z_MSC_GDPS_WindV_IsbL-1000_LatLon0.15_PT156H.grib2 2026-04-30 04:36 1.4M
20260430T00Z_MSC_GDPS_WindV_IsbL-1015_LatLon0.15_PT156H.grib2 2026-04-30 04:36 1.3M